period_start,C,m1,H,J0,J1,J2,J3,J4,J5,JA,JB,JC,JD,JJ,JK,JN,#
2015-03-27 00:01:37,0.12,4.36,0.00,19.72,24.10,27.23,4.89,28.66,1014.66,2043.71,2215.09,2212.25,2414.57,350.37,351.23,26.60,0000 0000 0000 0000 000000
2015-03-27 00:06:39,0.06,4.36,0.00,19.76,24.10,27.22,4.85,28.73,1014.69,2043.63,2214.34,2211.98,2414.00,349.97,350.83,26.63,0000 0000 0000 0000 000000
2015-03-27 00:11:40,0.14,4.37,0.00,19.73,24.10,27.19,4.96,28.74,1014.98,2043.43,2213.54,2211.00,2413.15,350.25,351.50,26.66,0000 0000 0000 0000 000000
2015-03-27 00:16:41,0.12,4.37,0.00,19.71,24.12,27.20,4.89,28.85,1015.14,2043.26,2212.16,2210.02,2412.04,349.73,351.00,26.68,0000 0000 0000 0000 000000
2015-03-27 00:21:42,0.14,4.37,0.00,19.70,24.12,27.21,4.73,28.86,1015.15,2043.19,2211.42,2209.49,2411.41,349.42,350.79,26.71,0000 0000 0000 0000 000000
2015-03-27 00:26:44,0.04,4.38,0.00,19.72,24.12,27.25,4.90,28.72,1015.16,2043.07,2210.68,2208.99,2410.90,350.07,351.26,26.74,0000 0000 0000 0000 000000
2015-03-27 00:31:45,0.14,4.38,0.00,19.72,24.14,27.24,4.87,28.76,1015.13,2043.05,2209.79,2208.33,2410.10,350.07,351.10,26.77,0000 0000 0000 0000 000000
2015-03-27 00:36:47,0.09,4.38,0.00,19.76,24.15,27.22,4.83,28.82,1014.93,2043.04,2208.88,2207.90,2409.53,349.99,351.06,26.80,0000 0000 0000 0000 000000
2015-03-27 00:41:48,0.11,4.39,0.00,19.78,24.15,27.21,4.80,28.73,1015.10,2043.02,2208.06,2207.10,2408.95,350.09,350.86,26.83,0000 0000 0000 0000 000000
2015-03-27 00:46:49,0.11,4.39,0.00,19.76,24.15,27.20,4.86,28.67,1015.28,2043.03,2207.27,2206.81,2408.11,349.99,350.94,26.86,0000 0000 0000 0000 000000
2015-03-27 00:51:51,0.14,4.39,0.00,19.77,24.17,27.19,4.87,29.03,1015.61,2043.01,2206.39,2206.04,2407.62,349.87,350.81,26.89,0000 0000 0000 0000 000000
2015-03-27 00:56:52,0.09,4.40,0.00,19.75,24.17,27.18,4.78,28.69,1015.63,2043.00,2205.63,2205.62,2406.99,350.26,351.48,26.92,0000 0000 0000 0000 000000
2015-03-27 01:01:53,0.12,4.40,0.00,19.79,24.17,27.15,4.80,28.88,1015.61,2043.00,2204.71,2205.01,2406.20,349.42,350.57,26.95,0000 0000 0000 0000 000000
2015-03-27 01:06:54,0.12,4.40,0.00,19.77,24.17,27.19,4.80,28.74,1015.64,2043.00,2203.90,2204.43,2405.69,350.03,351.10,26.98,0000 0000 0000 0000 000000
2015-03-27 01:11:56,0.07,4.41,0.00,19.75,24.18,27.20,4.85,28.89,1015.64,2043.00,2203.06,2203.99,2405.01,350.09,351.74,27.01,0000 0000 0000 0000 000000
2015-03-27 01:16:57,0.16,4.41,0.00,19.75,24.20,27.23,4.86,28.65,1015.64,2043.00,2202.17,2203.20,2404.24,350.10,351.49,27.04,0000 0000 0000 0000 000000
2015-03-27 01:21:58,0.13,4.41,0.00,19.73,24.20,27.24,4.96,28.68,1015.65,2043.00,2201.29,2202.69,2403.66,350.16,351.30,27.07,0000 0000 0000 0000 000000
2015-03-27 01:26:59,0.10,4.42,0.00,19.73,24.20,27.24,4.88,28.88,1015.63,2043.00,2200.27,2202.02,2402.95,350.17,351.29,27.09,0000 0000 0000 0000 000000
2015-03-27 01:32:00,0.15,4.42,0.00,19.71,24.20,27.27,4.90,28.96,1015.63,2043.00,2199.38,2201.46,2402.11,349.86,351.22,27.12,0000 0000 0000 0000 000000
2015-03-27 01:37:02,0.11,4.43,0.00,19.69,24.20,27.22,4.77,28.70,1015.66,2043.00,2198.40,2200.92,2401.44,349.56,350.65,27.15,0000 0000 0000 0000 000000
2015-03-27 01:42:03,0.12,4.43,0.00,19.74,24.20,27.25,4.80,28.71,1015.76,2043.00,2197.52,2200.13,2400.87,349.73,351.10,27.18,0000 0000 0000 0000 000000
2015-03-27 01:47:05,0.12,4.43,0.00,19.72,24.21,27.24,4.89,28.59,1015.81,2043.00,2196.59,2199.74,2400.06,350.06,351.19,27.21,0000 0000 0000 0000 000000
2015-03-27 01:52:06,0.12,4.44,0.00,19.74,24.22,27.18,4.83,28.53,1015.72,2043.00,2195.67,2199.03,2399.56,350.48,351.75,27.24,0000 0000 0000 0000 000000
2015-03-27 01:57:07,0.11,4.44,0.00,19.75,24.22,27.21,4.79,28.64,1015.89,2043.00,2194.79,2198.53,2398.87,349.41,350.91,27.27,0000 0000 0000 0000 000000
2015-03-27 02:02:09,0.12,4.45,0.00,19.76,24.22,27.20,4.96,28.76,1016.11,2043.00,2193.72,2197.98,2398.06,350.25,351.61,27.30,0000 0000 0000 0000 000000
2015-03-27 02:07:10,0.13,4.45,0.00,19.77,24.22,27.24,4.83,28.71,1016.11,2043.00,2192.92,2197.18,2397.58,349.99,351.45,27.33,0000 0000 0000 0000 000000
2015-03-27 02:12:11,0.10,4.45,0.00,19.78,24.22,27.24,4.85,28.70,1016.00,2043.00,2191.94,2196.78,2396.86,350.03,351.48,27.36,0000 0000 0000 0000 000000
2015-03-27 02:17:13,0.13,4.46,0.00,19.74,24.22,27.23,4.88,28.69,1016.12,2042.99,2191.04,2196.04,2396.05,349.93,351.28,27.39,0000 0000 0000 0000 000000
2015-03-27 02:22:14,0.14,4.46,0.00,19.76,24.22,27.22,4.85,28.53,1016.13,2042.99,2190.23,2195.63,2395.50,350.09,351.46,27.42,0000 0000 0000 0000 000000
2015-03-27 02:27:15,0.09,4.46,0.00,19.76,24.24,27.27,4.90,28.59,1016.16,2042.99,2189.27,2195.00,2394.87,349.77,351.08,27.45,0000 0000 0000 0000 000000
2015-03-27 02:32:17,0.16,4.47,0.00,19.79,24.25,27.30,4.86,28.55,1016.47,2042.99,2188.40,2194.29,2394.06,350.58,351.83,27.48,0000 0000 0000 0000 000000
2015-03-27 02:37:18,0.11,4.47,0.00,19.83,24.25,27.25,4.95,28.63,1016.62,2042.99,2187.51,2193.87,2393.45,350.27,351.78,27.50,0000 0000 0000 0000 000000
2015-03-27 02:42:19,0.11,4.47,0.00,19.86,24.25,27.25,4.86,28.38,1016.63,2042.98,2186.61,2193.11,2392.92,350.44,351.85,27.53,0000 0000 0000 0000 000000
2015-03-27 02:47:21,0.10,4.48,0.00,19.89,24.25,27.28,4.91,28.59,1016.62,2042.99,2185.73,2192.84,2392.14,350.12,351.59,27.56,0000 0000 0000 0000 000000
2015-03-27 02:52:22,0.13,4.48,0.00,19.91,24.27,27.35,4.92,28.75,1016.62,2042.98,2184.83,2192.05,2391.62,350.15,351.51,27.59,0000 0000 0000 0000 000000
2015-03-27 02:57:24,0.09,4.48,0.00,19.93,24.27,27.33,4.81,28.63,1016.62,2042.99,2183.97,2191.70,2390.98,350.03,351.33,27.62,0000 0000 0000 0000 000000
2015-03-27 03:02:25,0.13,4.49,0.00,19.94,24.27,27.36,4.89,28.81,1016.62,2042.98,2183.04,2191.02,2390.16,350.38,351.65,27.65,0000 0000 0000 0000 000000
2015-03-27 03:07:26,0.15,4.49,0.00,20.00,24.29,27.38,4.86,28.52,1016.62,2042.97,2182.13,2190.37,2389.64,350.11,351.41,27.68,0000 0000 0000 0000 000000
2015-03-27 03:12:27,0.08,4.50,0.00,20.01,24.30,27.41,4.87,28.63,1016.61,2042.97,2181.29,2189.98,2389.00,349.91,351.25,27.71,0000 0000 0000 0000 000000
2015-03-27 03:17:29,0.16,4.50,0.00,20.08,24.31,27.42,4.86,28.55,1016.62,2042.96,2180.41,2189.23,2388.23,350.01,351.24,27.74,0000 0000 0000 0000 000000
2015-03-27 03:22:30,0.10,4.50,0.00,20.08,24.32,27.44,4.84,28.70,1016.62,2042.94,2179.51,2188.83,2387.67,350.51,351.50,27.77,0000 0000 0000 0000 000000
2015-03-27 03:27:31,0.09,4.51,0.00,20.15,24.33,27.46,4.82,28.46,1016.62,2042.85,2178.59,2188.05,2386.97,350.17,350.98,27.80,0000 0000 0000 0000 000000
2015-03-27 03:32:32,0.16,4.51,0.00,20.16,24.35,27.48,4.88,28.56,1016.62,2042.85,2177.64,2187.55,2386.12,349.67,350.83,27.83,0000 0000 0000 0000 000000
2015-03-27 03:37:34,0.08,4.51,0.00,20.18,24.36,27.52,4.92,28.48,1016.62,2042.66,2176.63,2186.92,2385.49,350.05,351.14,27.86,0000 0000 0000 0000 000000
2015-03-27 03:42:35,0.06,4.52,0.00,20.23,24.37,27.55,4.80,28.56,1016.55,2042.32,2175.62,2186.11,2384.81,349.96,351.03,27.89,0000 0000 0000 0000 000000
2015-03-27 03:47:36,0.08,4.52,0.00,20.30,24.40,27.59,4.91,28.94,1016.49,2042.12,2174.86,2185.59,2384.05,350.17,350.99,27.91,0000 0000 0000 0000 000000
2015-03-27 03:52:37,0.11,4.52,0.00,20.30,24.41,27.58,4.80,28.90,1016.15,2042.03,2173.97,2184.98,2383.30,349.59,350.33,27.94,0000 0000 0000 0000 000000
2015-03-27 03:57:39,0.15,4.52,0.00,20.28,24.43,27.61,4.78,28.98,1016.10,2042.02,2173.03,2184.25,2382.62,349.54,350.26,27.97,0000 0000 0000 0000 000000
2015-03-27 04:02:40,0.11,4.53,0.00,20.29,24.45,27.66,4.92,29.24,1016.10,2042.00,2172.07,2183.70,2381.93,350.23,350.96,28.00,0000 0000 0000 0000 000000
2015-03-27 04:07:41,0.13,4.53,0.00,20.29,24.47,27.68,4.83,28.99,1016.12,2042.00,2171.17,2183.02,2381.09,350.61,351.29,28.03,0000 0000 0000 0000 000000
2015-03-27 04:12:42,0.17,4.54,0.00,20.31,24.49,27.69,4.86,28.93,1016.10,2042.00,2170.24,2182.35,2380.29,349.87,350.57,28.06,0000 0000 0000 0000 000000
2015-03-27 04:17:44,0.11,4.54,0.00,20.32,24.50,27.73,4.83,28.94,1016.14,2042.00,2169.33,2181.82,2379.68,350.19,350.83,28.09,0000 0000 0000 0000 000000
2015-03-27 04:22:45,0.13,4.54,0.00,20.31,24.52,27.72,4.84,28.76,1016.27,2041.99,2168.35,2181.04,2378.91,349.91,350.42,28.12,0000 0000 0000 0000 000000
2015-03-27 04:27:46,0.15,4.55,0.00,20.33,24.54,27.72,4.90,28.88,1016.17,2041.99,2167.46,2180.51,2378.08,350.05,350.90,28.15,0000 0000 0000 0000 000000
2015-03-27 04:32:48,0.11,4.55,0.00,20.29,24.56,27.80,4.83,29.01,1016.13,2041.98,2166.51,2179.89,2377.45,349.72,350.37,28.18,0000 0000 0000 0000 000000
2015-03-27 04:37:49,0.16,4.56,0.00,20.32,24.58,27.83,4.84,28.98,1016.15,2041.96,2165.42,2179.07,2376.65,350.30,351.11,28.21,0000 0000 0000 0000 000000
2015-03-27 04:42:51,0.14,4.56,0.00,20.27,24.60,27.84,4.91,29.22,1016.20,2041.90,2164.48,2178.40,2375.85,349.96,350.89,28.24,0000 0000 0000 0000 000000
2015-03-27 04:47:52,0.08,4.56,0.00,20.29,24.61,27.89,4.89,29.05,1016.21,2041.79,2163.62,2177.92,2375.06,349.59,350.47,28.27,0000 0000 0000 0000 000000
2015-03-27 04:52:53,0.11,4.57,0.00,20.27,24.63,27.90,4.85,29.07,1016.33,2041.69,2162.64,2177.13,2374.36,350.10,350.92,28.30,0000 0000 0000 0000 000000
2015-03-27 04:57:54,0.07,4.57,0.00,20.30,24.65,27.90,4.85,29.12,1016.54,2041.21,2161.67,2176.52,2373.63,350.28,351.29,28.32,0000 0000 0000 0000 000000
2015-03-27 05:02:56,0.10,4.57,0.00,20.32,24.66,27.90,4.86,29.13,1016.62,2041.07,2160.58,2175.90,2372.94,349.85,350.74,28.35,0000 0000 0000 0000 000000
2015-03-27 05:07:57,0.13,4.58,0.00,20.35,24.67,27.92,4.77,28.82,1016.63,2041.05,2159.78,2175.11,2372.12,350.06,350.84,28.38,0000 0000 0000 0000 000000
2015-03-27 05:12:58,0.10,4.58,0.00,20.30,24.69,27.87,4.84,28.95,1016.63,2041.01,2158.83,2174.82,2371.45,349.90,350.85,28.41,0000 0000 0000 0000 000000
2015-03-27 05:18:00,0.11,4.58,0.00,20.31,24.70,27.89,4.86,28.94,1016.64,2041.00,2157.92,2174.05,2370.87,349.95,350.64,28.44,0000 0000 0000 0000 000000
2015-03-27 05:23:01,0.15,4.59,0.00,20.38,24.72,27.87,4.88,28.77,1016.86,2041.00,2156.94,2173.49,2370.05,349.97,350.89,28.47,0000 0000 0000 0000 000000
2015-03-27 05:28:02,0.10,4.59,0.00,20.39,24.72,27.95,4.87,28.69,1017.09,2041.00,2156.06,2172.98,2369.33,350.01,351.01,28.50,0000 0000 0000 0000 000000
2015-03-27 05:33:04,0.14,4.59,0.00,20.41,24.75,27.93,4.85,28.80,1017.09,2041.00,2155.12,2172.20,2368.80,349.76,350.78,28.53,0000 0000 0000 0000 000000
2015-03-27 05:38:05,0.13,4.60,0.00,20.42,24.75,27.92,4.79,28.64,1017.25,2041.00,2154.18,2171.73,2368.02,349.92,350.88,28.56,0000 0000 0000 0000 000000
2015-03-27 05:43:06,0.13,4.60,0.00,20.45,24.77,27.95,4.73,28.63,1017.56,2041.00,2153.20,2171.02,2367.23,349.15,350.03,28.59,0000 0000 0000 0000 000000
2015-03-27 05:48:07,0.12,4.61,0.00,20.49,24.77,27.93,4.90,28.72,1017.57,2041.00,2152.37,2170.47,2366.96,349.97,351.13,28.62,0000 0000 0000 0000 000000
2015-03-27 05:53:08,0.10,4.61,0.00,20.49,24.79,27.95,4.83,28.62,1017.59,2040.99,2151.54,2169.98,2366.16,349.72,350.64,28.65,0000 0000 0000 0000 000000
2015-03-27 05:58:10,0.15,4.61,0.00,20.51,24.80,28.00,4.88,28.75,1017.59,2040.97,2150.66,2169.19,2365.57,350.44,351.20,28.68,0000 0000 0000 0000 000000
2015-03-27 06:03:11,0.05,4.62,0.00,20.55,24.82,28.01,4.94,28.84,1017.73,2040.95,2149.82,2168.89,2364.97,350.13,351.15,28.71,0000 0000 0000 0000 000000
2015-03-27 06:08:13,0.15,4.62,0.00,20.56,24.82,27.99,4.84,28.56,1018.07,2040.96,2149.02,2168.08,2364.15,349.59,350.63,28.73,0000 0000 0000 0000 000000
2015-03-27 06:13:14,0.12,4.62,0.00,20.59,24.85,28.00,4.85,28.61,1018.08,2040.97,2148.14,2167.78,2363.66,350.35,351.39,28.76,0000 0000 0000 0000 000000
2015-03-27 06:18:15,0.09,4.63,0.00,20.62,24.85,28.04,4.79,28.63,1018.07,2040.89,2147.20,2167.04,2362.99,349.65,350.62,28.79,0000 0000 0000 0000 000000
2015-03-27 06:23:16,0.08,4.63,0.00,20.62,24.87,28.05,4.86,28.45,1018.08,2040.65,2146.30,2166.51,2362.18,349.72,350.77,28.82,0000 0000 0000 0000 000000
2015-03-27 06:28:17,0.06,4.63,0.00,20.65,24.88,28.08,4.79,28.46,1018.10,2040.27,2145.40,2165.95,2361.51,349.21,350.06,28.85,0000 0000 0000 0000 000000
2015-03-27 06:33:18,0.10,4.63,0.00,20.63,24.90,28.10,4.85,28.57,1018.22,2040.08,2144.49,2165.12,2360.92,350.17,351.22,28.88,0000 0000 0000 0000 000000
2015-03-27 06:38:20,0.12,4.64,0.00,20.69,24.91,28.10,4.90,28.52,1018.23,2040.02,2143.61,2164.71,2360.11,349.99,350.95,28.91,0000 0000 0000 0000 000000
2015-03-27 06:43:21,0.13,4.64,0.00,20.70,24.92,28.08,4.84,28.52,1018.15,2040.02,2142.64,2164.02,2359.53,349.68,350.71,28.94,0000 0000 0000 0000 000000
2015-03-27 06:48:22,0.10,4.64,0.00,20.73,24.95,28.13,4.84,28.62,1018.11,2040.00,2141.83,2163.49,2358.95,349.77,350.79,28.97,0000 0000 0000 0000 000000
2015-03-27 06:53:23,0.10,4.65,0.00,20.73,24.96,28.14,4.86,28.58,1018.10,2040.00,2140.96,2162.99,2358.15,350.16,351.05,29.00,0000 0000 0000 0000 000000
2015-03-27 06:58:24,0.16,4.65,0.00,20.71,24.97,28.19,4.94,28.68,1018.08,2040.00,2140.00,2162.26,2357.51,350.46,351.27,29.03,0000 0000 0000 0000 000000
2015-03-27 07:03:25,0.09,4.66,0.00,20.68,24.97,28.16,4.88,28.69,1018.08,2040.00,2139.08,2161.84,2356.90,349.92,350.89,29.06,0000 0000 0000 0000 000000
2015-03-27 07:08:27,0.15,4.66,0.00,20.73,25.00,28.19,4.79,28.73,1018.07,2040.00,2138.20,2161.08,2356.09,349.77,350.59,29.09,0000 0000 0000 0000 000000
2015-03-27 07:13:28,0.14,4.66,0.00,20.80,25.01,28.19,4.81,28.94,1017.69,2039.99,2137.37,2160.63,2355.49,349.79,350.33,29.12,0000 0000 0000 0000 000000
2015-03-27 07:18:29,0.11,4.67,0.00,20.77,25.02,28.22,4.88,29.06,1017.60,2039.98,2136.38,2159.99,2354.78,350.15,350.85,29.15,0000 0000 0000 0000 000000
2015-03-27 07:23:30,0.15,4.67,0.00,20.78,25.05,28.25,4.88,28.98,1017.71,2039.97,2135.46,2159.22,2354.03,350.15,350.90,29.17,0000 0000 0000 0000 000000
2015-03-27 07:28:31,0.14,4.67,0.00,20.79,25.06,28.25,4.89,29.16,1017.63,2039.96,2134.48,2158.68,2353.22,350.01,350.60,29.20,0000 0000 0000 0000 000000
2015-03-27 07:33:33,0.11,4.68,0.00,20.74,25.07,28.27,4.80,29.21,1017.67,2039.90,2133.49,2158.02,2352.51,349.75,350.52,29.23,0000 0000 0000 0000 000000
2015-03-27 07:38:34,0.11,4.68,0.00,20.76,25.09,28.30,4.89,28.93,1018.11,2039.72,2132.56,2157.29,2351.85,350.35,351.27,29.26,0000 0000 0000 0000 000000
2015-03-27 07:43:35,-0.02,4.68,0.00,20.76,25.10,28.33,4.92,28.73,1018.56,2039.24,2131.84,2156.87,2351.04,350.51,351.48,29.29,0000 0000 0000 0000 000000
2015-03-27 07:48:37,0.14,4.69,0.00,20.74,25.12,28.33,4.88,28.72,1018.59,2039.10,2130.99,2156.07,2350.40,350.01,351.12,29.32,0000 0000 0000 0000 000000
2015-03-27 07:53:38,0.09,4.69,0.00,20.76,25.13,28.35,4.91,28.88,1018.60,2039.06,2130.10,2155.76,2349.86,350.12,351.10,29.35,0000 0000 0000 0000 000000
2015-03-27 07:58:39,0.13,4.69,0.00,20.76,25.15,28.37,4.82,29.08,1018.88,2039.03,2129.20,2155.04,2349.06,350.08,351.26,29.38,0000 0000 0000 0000 000000
2015-03-27 08:03:41,0.17,4.70,0.00,20.77,25.15,28.38,4.92,28.95,1019.15,2039.00,2128.26,2154.35,2348.29,350.35,351.48,29.41,0000 0000 0000 0000 000000
2015-03-27 08:08:42,0.08,4.70,0.00,20.78,25.17,28.35,4.74,28.72,1019.52,2039.00,2127.50,2153.91,2347.80,349.30,350.55,29.44,0000 0000 0000 0000 000000
2015-03-27 08:13:43,0.15,4.70,0.00,20.83,25.17,28.40,4.90,28.77,1019.55,2039.00,2126.55,2153.12,2347.03,350.42,351.68,29.47,0000 0000 0000 0000 000000
2015-03-27 08:18:45,0.12,4.71,0.00,20.84,25.19,28.42,4.77,28.64,1019.83,2039.00,2125.68,2152.76,2346.42,349.64,351.05,29.50,0000 0000 0000 0000 000000
2015-03-27 08:23:46,0.10,4.71,0.00,20.86,25.20,28.37,4.87,28.48,1020.03,2039.00,2124.81,2152.03,2345.88,349.94,351.21,29.53,0000 0000 0000 0000 000000
2015-03-27 08:28:47,0.12,4.71,0.00,20.89,25.22,28.36,4.84,28.55,1020.03,2038.99,2123.97,2151.61,2345.08,349.97,351.11,29.56,0000 0000 0000 0000 000000
2015-03-27 08:33:48,0.12,4.72,0.00,20.97,25.22,28.40,4.83,28.48,1020.02,2038.98,2123.09,2151.02,2344.53,350.09,351.42,29.58,0000 0000 0000 0000 000000
2015-03-27 08:38:50,0.13,4.72,0.00,21.02,25.25,28.45,4.87,28.63,1020.02,2038.98,2122.20,2150.44,2344.00,350.24,351.34,29.61,0000 0000 0000 0000 000000
2015-03-27 08:43:51,0.10,4.72,0.00,21.07,25.26,28.53,4.83,28.57,1020.03,2038.98,2121.45,2149.99,2343.25,349.95,351.08,29.64,0000 0000 0000 0000 000000
2015-03-27 08:48:52,0.13,4.73,0.00,21.13,25.28,28.55,4.90,28.41,1020.04,2038.95,2120.65,2149.30,2342.79,350.21,351.25,29.67,0000 0000 0000 0000 000000
2015-03-27 08:53:53,0.04,4.73,0.00,21.15,25.30,28.47,4.88,28.50,1020.08,2038.87,2119.80,2148.94,2342.03,349.88,350.94,29.70,0000 0000 0000 0000 000000
2015-03-27 08:58:54,0.07,4.73,0.00,21.16,25.32,28.49,4.78,28.43,1020.43,2038.37,2118.77,2148.12,2341.25,349.62,350.80,29.73,0000 0000 0000 0000 000000
2015-03-27 09:03:56,0.06,4.73,0.00,21.20,25.34,28.54,4.85,28.30,1020.52,2038.11,2117.98,2147.70,2340.72,350.12,351.37,29.76,0000 0000 0000 0000 000000
2015-03-27 09:08:57,0.11,4.74,0.00,21.17,25.37,28.57,4.87,28.33,1020.53,2038.03,2117.12,2147.03,2340.02,350.17,351.55,29.79,0000 0000 0000 0000 000000
2015-03-27 09:13:58,0.15,4.74,0.00,21.19,25.39,28.60,4.89,28.25,1020.53,2038.01,2116.30,2146.56,2339.38,349.45,351.05,29.82,0000 0000 0000 0000 000000
2015-03-27 09:18:59,0.08,4.74,0.00,21.19,25.41,28.61,4.82,28.35,1020.55,2038.00,2115.47,2146.00,2338.81,349.84,350.93,29.85,0000 0000 0000 0000 000000
2015-03-27 09:24:00,0.15,4.75,0.00,21.19,25.43,28.61,4.84,28.48,1020.56,2038.00,2114.56,2145.26,2338.05,349.56,350.74,29.88,0000 0000 0000 0000 000000
2015-03-27 09:29:01,0.09,4.75,0.00,21.16,25.45,28.67,4.87,28.31,1020.62,2037.98,2113.72,2144.92,2337.30,350.14,351.44,29.91,0000 0000 0000 0000 000000
2015-03-27 09:34:03,0.12,4.76,0.00,21.18,25.47,28.67,4.81,28.26,1020.72,2037.97,2112.91,2144.10,2336.82,350.23,351.55,29.94,0000 0000 0000 0000 000000
2015-03-27 09:39:04,0.10,4.76,0.00,21.21,25.48,28.68,4.82,28.23,1020.93,2037.98,2112.05,2143.81,2336.04,349.73,351.01,29.97,0000 0000 0000 0000 000000
2015-03-27 09:44:05,0.14,4.76,0.00,21.16,25.50,28.69,4.93,28.27,1021.01,2037.96,2111.21,2143.07,2335.50,350.03,351.43,29.99,0000 0000 0000 0000 000000
2015-03-27 09:49:07,0.10,4.77,0.00,21.18,25.51,28.68,4.86,28.29,1021.04,2037.93,2110.64,2142.68,2334.96,349.90,351.31,30.02,0000 0000 0000 0000 000000
2015-03-27 09:54:08,0.06,4.77,0.00,21.17,25.52,28.70,4.88,28.29,1021.16,2037.75,2109.81,2142.02,2334.14,350.22,351.50,30.05,0000 0000 0000 0000 000000
2015-03-27 09:59:09,0.10,4.77,0.00,21.19,25.54,28.67,4.88,28.42,1021.36,2037.67,2108.91,2141.63,2333.73,350.13,351.64,30.08,0000 0000 0000 0000 000000
2015-03-27 10:04:11,0.01,4.77,0.00,21.22,25.55,28.69,4.83,28.40,1021.19,2037.17,2108.05,2141.01,2333.01,350.20,351.49,30.11,0000 0000 0000 0000 000000
2015-03-27 10:09:12,0.15,4.77,0.00,21.21,25.56,28.68,4.85,28.42,1020.99,2037.10,2107.26,2140.50,2332.35,349.97,351.11,30.14,0000 0000 0000 0000 000000
2015-03-27 10:14:13,0.06,4.78,0.00,21.21,25.57,28.69,4.87,28.45,1020.61,2037.05,2106.52,2140.00,2331.90,350.11,351.34,30.17,0000 0000 0000 0000 000000
2015-03-27 10:19:15,0.15,4.78,0.00,21.18,25.57,28.71,4.90,28.38,1020.54,2037.05,2105.67,2139.33,2331.09,350.08,351.31,30.20,0000 0000 0000 0000 000000
2015-03-27 10:24:16,0.06,4.79,0.00,21.16,25.59,28.73,4.78,28.40,1020.53,2037.02,2104.96,2138.99,2330.63,349.67,351.01,30.23,0000 0000 0000 0000 000000
2015-03-27 10:29:17,0.14,4.79,0.00,21.11,25.60,28.72,4.78,28.21,1020.76,2037.02,2104.10,2138.39,2330.01,349.35,350.59,30.26,0000 0000 0000 0000 000000
2015-03-27 10:34:19,0.10,4.79,0.00,21.10,25.60,28.70,4.83,28.23,1021.01,2037.01,2103.30,2137.99,2329.35,349.84,351.28,30.29,0000 0000 0000 0000 000000
2015-03-27 10:39:20,0.11,4.80,0.00,21.12,25.60,28.62,4.88,28.08,1021.13,2037.00,2102.57,2137.34,2328.95,350.98,352.34,30.32,0000 0000 0000 0000 000000
2015-03-27 10:44:21,0.11,4.80,0.00,21.10,25.62,28.66,4.82,28.10,1021.28,2037.00,2101.60,2136.93,2328.11,350.53,351.92,30.35,0000 0000 0000 0000 000000
2015-03-27 10:49:22,0.15,4.80,0.00,21.10,25.62,28.65,4.89,28.18,1021.41,2037.00,2100.71,2136.13,2327.62,350.11,351.55,30.38,0000 0000 0000 0000 000000
2015-03-27 10:54:24,0.08,4.81,0.00,21.10,25.62,28.65,4.84,28.34,1021.44,2037.00,2099.90,2135.77,2327.01,350.01,351.61,30.40,0000 0000 0000 0000 000000
2015-03-27 10:59:25,0.14,4.81,0.00,21.12,25.62,28.65,4.88,28.34,1021.43,2037.00,2098.99,2135.04,2326.27,350.11,351.81,30.43,0000 0000 0000 0000 000000
2015-03-27 11:04:26,0.10,4.81,0.00,21.08,25.62,28.66,4.91,28.25,1021.50,2037.00,2098.09,2134.71,2325.94,350.16,351.84,30.46,0000 0000 0000 0000 000000
2015-03-27 11:09:28,0.13,4.82,0.00,21.10,25.63,28.66,4.85,28.23,1021.46,2037.00,2097.55,2134.04,2325.14,350.12,351.72,30.49,0000 0000 0000 0000 000000
2015-03-27 11:14:29,0.05,4.82,0.00,21.10,25.63,28.67,4.89,28.32,1021.49,2037.00,2096.89,2133.83,2324.78,350.52,352.11,30.52,0000 0000 0000 0000 000000
2015-03-27 11:19:30,0.13,4.82,0.00,21.13,25.64,28.64,4.93,28.23,1021.50,2036.98,2096.05,2133.07,2324.06,350.37,351.91,30.55,0000 0000 0000 0000 000000
2015-03-27 11:24:31,0.10,4.83,0.00,21.12,25.65,28.63,4.92,28.33,1021.49,2036.98,2095.19,2132.85,2323.64,350.29,351.75,30.58,0000 0000 0000 0000 000000
2015-03-27 11:29:32,0.13,4.83,0.00,21.10,25.65,28.60,4.85,28.25,1021.49,2036.98,2094.46,2132.10,2323.01,350.04,351.53,30.61,0000 0000 0000 0000 000000
2015-03-27 11:34:33,0.06,4.83,0.00,21.11,25.65,28.60,4.86,28.20,1021.50,2036.99,2093.80,2131.95,2322.48,349.87,351.71,30.64,0000 0000 0000 0000 000000
2015-03-27 11:39:35,0.12,4.84,0.00,21.10,25.65,28.59,4.86,28.27,1021.50,2036.99,2093.01,2131.21,2322.01,350.31,351.81,30.67,0000 0000 0000 0000 000000
2015-03-27 11:44:36,0.09,4.84,0.00,21.14,25.65,28.59,4.82,28.23,1021.50,2036.99,2092.17,2130.98,2321.49,349.94,351.52,30.70,0000 0000 0000 0000 000000
2015-03-27 11:49:37,0.14,4.84,0.00,21.12,25.65,28.60,4.81,28.28,1021.50,2036.97,2091.40,2130.24,2320.98,349.64,351.42,30.73,0000 0000 0000 0000 000000
2015-03-27 11:54:39,0.08,4.85,0.00,21.12,25.65,28.59,4.88,28.18,1021.50,2036.98,2090.73,2130.00,2320.32,350.31,351.86,30.76,0000 0000 0000 0000 000000
2015-03-27 11:59:40,0.11,4.85,0.00,21.12,25.65,28.61,4.92,28.28,1021.50,2036.98,2089.87,2129.41,2319.93,350.26,351.74,30.79,0000 0000 0000 0000 000000
2015-03-27 12:04:41,0.10,4.85,0.00,21.06,25.65,28.61,4.90,28.30,1021.50,2036.99,2089.05,2129.00,2319.15,350.13,351.76,30.81,0000 0000 0000 0000 000000
2015-03-27 12:09:42,0.15,4.86,0.00,21.09,25.65,28.58,4.85,28.25,1021.50,2036.99,2088.27,2128.36,2318.75,349.78,351.46,30.84,0000 0000 0000 0000 000000
2015-03-27 12:14:44,0.07,4.86,0.00,21.06,25.65,28.62,4.84,28.24,1021.51,2036.97,2087.54,2128.00,2318.04,350.19,352.17,30.87,0000 0000 0000 0000 000000
2015-03-27 12:19:45,0.13,4.86,0.00,21.12,25.65,28.59,4.92,28.29,1021.50,2036.96,2086.82,2127.39,2317.58,350.53,352.14,30.90,0000 0000 0000 0000 000000
2015-03-27 12:24:46,0.07,4.87,0.00,21.11,25.65,28.60,4.84,28.30,1021.51,2036.97,2086.03,2127.01,2317.02,349.71,351.58,30.93,0000 0000 0000 0000 000000
2015-03-27 12:29:48,0.16,4.87,0.00,21.10,25.65,28.59,4.83,28.26,1021.64,2036.96,2085.20,2126.49,2316.47,349.87,351.53,30.96,0000 0000 0000 0000 000000
2015-03-27 12:34:49,0.07,4.87,0.00,21.11,25.65,28.60,4.86,28.31,1021.96,2036.90,2084.32,2126.00,2316.00,350.17,351.75,30.99,0000 0000 0000 0000 000000
2015-03-27 12:39:50,0.15,4.87,0.00,21.06,25.65,28.59,4.87,28.23,1021.99,2036.92,2083.61,2125.44,2315.29,349.46,351.27,31.02,0000 0000 0000 0000 000000
2015-03-27 12:44:52,0.05,4.88,0.00,21.10,25.65,28.56,4.92,28.19,1021.99,2036.93,2082.84,2125.01,2314.96,350.41,351.79,31.05,0000 0000 0000 0000 000000
2015-03-27 12:49:53,0.15,4.88,0.00,21.16,25.65,28.63,4.86,28.26,1022.00,2036.93,2082.00,2124.53,2314.20,350.02,351.76,31.08,0000 0000 0000 0000 000000
2015-03-27 12:54:54,0.09,4.89,0.00,21.18,25.65,28.62,4.89,28.41,1021.99,2036.91,2081.13,2124.00,2313.76,350.00,351.62,31.11,0000 0000 0000 0000 000000
2015-03-27 12:59:55,0.10,4.89,0.00,21.13,25.65,28.65,4.96,28.38,1021.99,2036.80,2080.33,2123.47,2313.03,350.56,352.33,31.14,0000 0000 0000 0000 000000